sat.trackr.live / text

‹ back to catalog

STARLINK-5451

NORAD 54771 · 2022-175P

PAYLOAD ACTIVE UNKNOWN

§ Identity

Operator
Country
US
Launch date
2022-12-17
Launch site
AFETR
Launch vehicle
Mass (kg)
RCS (m²)

Purposes: comms

External: N2YO · Heavens-Above · Gunter

§ Orbital elements

Epoch: 2026-09-20T13:05:43.752192Z

Period
94.33 min
Inclination
53.1587°
Eccentricity
0.0001412
Mean motion
15.26517290 rev/d
Perigee alt
485.3 km
Apogee alt
487.2 km
Semi-major
6,864.4 km
B*
4.0825e-5
RAAN
234.0821°
Arg perigee
86.2971°
Mean anomaly
273.8190°
Rev number
20,954

§ Raw data

STARLINK-54511 54771U 22175P   26263.54564528  .00000735  00000+0  40825-4 0  99962 54771  53.1587 234.0821 0001412  86.2971 273.8190 15.26517290209544

JSON: /api/v1/satellites/54771 · /tle

For live sub-satellite position, see the globe view (requires WebGL).

§ Visibility from observer

Set your observer location to see the next 7 days of passes ≥ 10°. The values pass through the URL so the page stays shareable.

No JS? Fill the form by hand. The geolocation button needs JavaScript.